Weather History for Farmington, NM

Change the Weather History Date:

Friday, August 9, 2013

  Actual Average Record
Temperature  
Mean Temperature 71 °F -  
Max Temperature 89 °F 88 °F 99 °F (2000)
Min Temperature 53 °F 58 °F 51 °F (2014)
Cooling Degree Days 6    
Growing Degree Days 21 (Base 50)    
Moisture  
Dew Point 42 °F    
Average Humidity 38    
Maximum Humidity 77    
Minimum Humidity 8    
Precipitation  
Precipitation 0.00 in - - ()
Sea Level Pressure  
Sea Level Pressure 30.02 in    
Wind  
Wind Speed 7 mph (ESE)    
Max Wind Speed 14 mph    
Max Gust Speed 20 mph    
Visibility 10 miles    
Events      
Averages and records for this station are not official NWS values.
T = Trace of Precipitation, MM = Missing Value Source: NWS Daily Summary

Daily Weather History Graph

Daily Weather History Graph

Search for Another Location

Airport:

Trip Planner

Search our weather history database for the weather conditions in past years. The results will help you decide how hot, cold, wet, or windy it might be!

Date:

Astronomy

Aug. 09, 2013 Rise Set
Actual Time 6:25 AM MDT 8:10 PM MDT
Civil Twilight 5:57 AM MDT 8:38 PM MDT
Nautical Twilight 5:23 AM MDT 9:12 PM MDT
Astronomical Twilight 4:47 AM MDT 9:47 PM MDT
Moon 9:08 AM MDT (8/9) 9:28 PM MDT (8/9)
Length of Visible Light 14h 41m
Length of Day
13h 45m
Waxing Crescent, 8% of the Moon is Illuminated
Aug 9
Waxing Crescent
Aug 14
First Quarter
Aug 20
Full
Aug 28
Last Quarter
Sep 5
New

Hourly Weather History & Observations

Time (MDT) Temp. Dew Point Humidity Pressure Visibility Wind Dir Wind Speed Gust Speed Precip Events Conditions
12:53 AM 62.1 °F 48.0 °F 60% 30.02 in 10.0 mi East 9.2 mph - N/A   Clear
1:53 AM 61.0 °F 48.0 °F 62% 30.01 in 10.0 mi East 6.9 mph - N/A   Clear
2:53 AM 57.9 °F 46.9 °F 67% 30.01 in 10.0 mi East 5.8 mph - N/A   Clear
3:53 AM 57.9 °F 46.9 °F 67% 30.01 in 10.0 mi East 5.8 mph - N/A   Clear
4:53 AM 55.9 °F 46.9 °F 72% 30.04 in 10.0 mi Calm Calm - N/A   Clear
5:53 AM 54.0 °F 46.9 °F 77% 30.06 in 10.0 mi ENE 6.9 mph - N/A   Clear
6:53 AM 55.9 °F 46.0 °F 69% 30.06 in 10.0 mi East 8.1 mph - N/A   Clear
7:53 AM 59.0 °F 46.0 °F 62% 30.09 in 10.0 mi East 9.2 mph - N/A   Clear
8:53 AM 66.0 °F 46.9 °F 50% 30.08 in 10.0 mi East 10.4 mph - N/A   Clear
9:53 AM 69.1 °F 46.9 °F 45% 30.09 in 10.0 mi ESE 12.7 mph - N/A   Clear
10:53 AM 75.0 °F 46.0 °F 36% 30.06 in 10.0 mi East 6.9 mph - N/A   Clear
11:53 AM 81.0 °F 44.1 °F 27% 30.05 in 10.0 mi East 6.9 mph - N/A   Clear
12:53 PM 84.0 °F 42.1 °F 23% 30.01 in 10.0 mi East 6.9 mph - N/A   Clear
1:53 PM 84.9 °F 37.9 °F 19% 29.99 in 10.0 mi Variable 5.8 mph - N/A   Clear
2:53 PM 86.0 °F 35.1 °F 16% 29.98 in 10.0 mi SW 6.9 mph - N/A   Partly Cloudy
3:53 PM 86.0 °F 36.0 °F 17% 29.96 in 10.0 mi SW 9.2 mph 17.3 mph N/A   Partly Cloudy
4:53 PM 88.0 °F 36.0 °F 16% 29.95 in 10.0 mi SW 13.8 mph 19.6 mph N/A   Clear
5:53 PM 86.0 °F 34.0 °F 16% 29.96 in 10.0 mi South 4.6 mph - N/A   Clear
6:53 PM 82.9 °F 36.0 °F 19% 29.96 in 10.0 mi Calm Calm - N/A   Clear
7:53 PM 82.9 °F 35.1 °F 18% 29.96 in 10.0 mi Calm Calm - N/A   Clear
8:53 PM 75.9 °F 41.0 °F 29% 29.99 in 10.0 mi East 4.6 mph - N/A   Clear
9:53 PM 73.9 °F 41.0 °F 30% 30.01 in 10.0 mi East 11.5 mph - N/A   Clear
10:53 PM 72.0 °F 42.1 °F 34% 30.01 in 10.0 mi SE 9.2 mph - N/A   Clear
11:53 PM 70.0 °F 43.0 °F 38% 30.01 in 10.0 mi East 11.5 mph - N/A   Clear